STARLINK-36326

Last updated on Sun Apr 12 2026 00:02:09 GMT+0000 (Coordinated Universal Time)

1 68519U 26068M 26101.50002315 .00074024 00000+0 37606-3 0 9998 2 68519 53.1597 344.8105 0000962 116.2082 47.9484 15.80833395 3085
UTC large
Height (km)
Speed (km/s)
/
Latitude / Longitude
Inclination (degrees)
Orbital Period (minutes)
Azimuth
Elevation
Range (km)
Doppler Factor

Next 0 passes for location: London (51.5072 / 0.1276)

Sorry there are no passes over London.
STARLINK-36326